Private Wetterstation Wechselburg
Wetterdaten: Samstag, 14.08.2021
Datum Zeit Temp. +2m Bodentemp. Temp.+5cm Temp. Wind Windchill X Diff Temp. Feuchte +2m Feuchte +5cm Luftdruck Regen Wind Richtung Richtung Sonnenschein Taupunkt Windchill Windben
14.08.2021 00:00 20,5 C 21,1 C 19,9 C 20,2 C 19,6 C 0,0 C 83 % 87 % 1018,4 hPa 0,0 l/m 0,0 km/h (0 Bft) O-NO 67 0 min 17,5 C 19,6 C 0,0 km/h (0 Bft)
14.08.2021 00:05 20,4 C 21,1 C 19,7 C 20,2 C 19,7 C 0,0 C 83 % 87 % 1018,4 hPa 0,0 l/m 0,0 km/h (0 Bft) O-NO 67 0 min 17,4 C 19,7 C 0,0 km/h (0 Bft)
14.08.2021 00:10 20,4 C 21,1 C 19,7 C 20,2 C 19,7 C 0,0 C 84 % 87 % 1018,4 hPa 0,0 l/m 0,5 km/h (0 Bft) O-NO 67 0 min 17,6 C 19,7 C 0,0 km/h (0 Bft)
14.08.2021 00:15 20,4 C 21,1 C 19,7 C 20,2 C 19,8 C 0,0 C 84 % 87 % 1018,4 hPa 0,0 l/m 0,5 km/h (0 Bft) O-NO 67 0 min 17,6 C 19,8 C 0,0 km/h (0 Bft)
14.08.2021 00:20 20,3 C 21,1 C 19,7 C 20,2 C 19,9 C 0,0 C 84 % 87 % 1018,4 hPa 0,0 l/m 0,0 km/h (0 Bft) O-NO 67 0 min 17,5 C 19,9 C 0,0 km/h (0 Bft)
14.08.2021 00:25 20,3 C 21,0 C 19,8 C 20,2 C 20,0 C 0,0 C 84 % 87 % 1018,4 hPa 0,0 l/m 0,0 km/h (0 Bft) O-NO 67 0 min 17,5 C 20,0 C 0,0 km/h (0 Bft)
14.08.2021 00:30 20,3 C 21,0 C 19,9 C 20,2 C 20,1 C 0,0 C 84 % 87 % 1018,4 hPa 0,0 l/m 0,0 km/h (0 Bft) O-NO 67 0 min 17,5 C 20,1 C 0,0 km/h (0 Bft)
14.08.2021 00:35 20,4 C 21,0 C 20,0 C 20,5 C 20,5 C 0,1 C 84 % 86 % 1018,6 hPa 0,0 l/m 0,0 km/h (0 Bft) O-NO 67 0 min 17,6 C 20,5 C 0,0 km/h (0 Bft)
14.08.2021 00:40 20,5 C 20,8 C 20,1 C 20,7 C 20,7 C 0,2 C 84 % 86 % 1018,6 hPa 0,0 l/m 0,0 km/h (0 Bft) O-NO 67 0 min 17,7 C 20,7 C 0,0 km/h (0 Bft)
14.08.2021 00:45 20,4 C 20,7 C 20,2 C 20,9 C 20,9 C 0,5 C 84 % 86 % 1018,6 hPa 0,0 l/m 0,0 km/h (0 Bft) O-NO 67 0 min 17,6 C 20,9 C 0,0 km/h (0 Bft)
14.08.2021 00:50 20,5 C 20,8 C 20,3 C 20,9 C 20,9 C 0,4 C 84 % 85 % 1018,6 hPa 0,0 l/m 0,0 km/h (0 Bft) O-NO 67 0 min 17,7 C 20,9 C 0,0 km/h (0 Bft)
14.08.2021 00:55 20,6 C 20,8 C 20,3 C 20,9 C 20,9 C 0,3 C 83 % 85 % 1018,6 hPa 0,0 l/m 0,0 km/h (0 Bft) O-NO 67 0 min 17,6 C 20,9 C 0,0 km/h (0 Bft)
14.08.2021 01:00 20,7 C 20,8 C 20,2 C 20,9 C 20,9 C 0,2 C 83 % 85 % 1018,6 hPa 0,0 l/m 0,0 km/h (0 Bft) O-NO 67 0 min 17,7 C 20,9 C 0,0 km/h (0 Bft)
14.08.2021 01:05 20,6 C 20,7 C 20,2 C 20,8 C 20,8 C 0,2 C 83 % 85 % 1018,6 hPa 0,0 l/m 0,0 km/h (0 Bft) O-NO 67 0 min 17,6 C 20,8 C 0,0 km/h (0 Bft)
14.08.2021 01:10 20,7 C 20,7 C 20,2 C 20,8 C 20,8 C 0,1 C 83 % 84 % 1018,6 hPa 0,0 l/m 0,2 km/h (0 Bft) SW 225 0 min 17,7 C 20,8 C 0,0 km/h (0 Bft)
14.08.2021 01:15 20,9 C 20,7 C 20,3 C 20,9 C 20,8 C 0,0 C 82 % 84 % 1019,2 hPa 0,0 l/m 0,3 km/h (0 Bft) NW 315 0 min 17,7 C 20,8 C 6,1 km/h (2 Bft)
14.08.2021 01:20 21,0 C 20,7 C 20,3 C 20,8 C 20,3 C 0,0 C 83 % 85 % 1019,2 hPa 0,0 l/m 0,5 km/h (0 Bft) S 180 0 min 18,0 C 20,3 C 0,0 km/h (0 Bft)
14.08.2021 01:25 21,1 C 20,7 C 20,1 C 20,6 C 19,5 C 0,0 C 82 % 85 % 1019,2 hPa 0,0 l/m 0,8 km/h (0 Bft) W-SW 247 0 min 17,9 C 19,5 C 2,4 km/h (1 Bft)
14.08.2021 01:30 20,9 C 20,8 C 20,0 C 20,3 C 19,2 C 0,0 C 82 % 85 % 1019,2 hPa 0,0 l/m 0,8 km/h (0 Bft) W-SW 247 0 min 17,7 C 19,2 C 0,0 km/h (0 Bft)
14.08.2021 01:35 20,9 C 20,8 C 19,9 C 20,3 C 19,0 C 0,0 C 82 % 85 % 1019,2 hPa 0,0 l/m 0,3 km/h (0 Bft) W-NW 292 0 min 17,7 C 19,0 C 0,0 km/h (0 Bft)
14.08.2021 01:40 20,8 C 20,8 C 19,9 C 20,2 C 19,0 C 0,0 C 82 % 86 % 1019,2 hPa 0,0 l/m 0,0 km/h (0 Bft) W-NW 292 0 min 17,6 C 19,0 C 0,0 km/h (0 Bft)
14.08.2021 01:45 20,7 C 20,8 C 19,7 C 20,1 C 18,9 C 0,0 C 82 % 86 % 1019,2 hPa 0,0 l/m 0,0 km/h (0 Bft) W 270 0 min 17,5 C 18,9 C 0,0 km/h (0 Bft)
14.08.2021 01:50 20,6 C 20,8 C 19,8 C 20,0 C 18,9 C 0,0 C 82 % 87 % 1019,2 hPa 0,0 l/m 0,0 km/h (0 Bft) W 270 0 min 17,4 C 18,9 C 0,0 km/h (0 Bft)
14.08.2021 01:55 20,5 C 20,9 C 19,6 C 20,0 C 18,9 C 0,0 C 82 % 87 % 1019,1 hPa 0,0 l/m 0,0 km/h (0 Bft) W 270 0 min 17,3 C 18,9 C 0,0 km/h (0 Bft)
14.08.2021 02:00 20,5 C 21,0 C 19,5 C 19,9 C 18,8 C 0,0 C 82 % 87 % 1019,1 hPa 0,0 l/m 0,0 km/h (0 Bft) W 270 0 min 17,3 C 18,8 C 0,0 km/h (0 Bft)
14.08.2021 02:05 20,4 C 21,0 C 19,5 C 19,8 C 18,7 C 0,0 C 83 % 87 % 1019,1 hPa 0,0 l/m 0,0 km/h (0 Bft) W 270 0 min 17,4 C 18,7 C 0,0 km/h (0 Bft)
14.08.2021 02:10 20,3 C 21,0 C 19,4 C 19,7 C 18,6 C 0,0 C 83 % 87 % 1019,1 hPa 0,0 l/m 0,0 km/h (0 Bft) W 270 0 min 17,3 C 18,6 C 0,0 km/h (0 Bft)
14.08.2021 02:15 20,3 C 21,1 C 19,3 C 19,7 C 18,5 C 0,0 C 83 % 88 % 1019,3 hPa 0,0 l/m 0,0 km/h (0 Bft) W 270 0 min 17,3 C 18,5 C 0,0 km/h (0 Bft)
14.08.2021 02:20 20,2 C 21,1 C 19,2 C 19,6 C 18,3 C 0,0 C 83 % 88 % 1019,3 hPa 0,0 l/m 0,0 km/h (0 Bft) W 270 0 min 17,2 C 18,3 C 0,0 km/h (0 Bft)
14.08.2021 02:25 20,1 C 21,1 C 18,9 C 19,5 C 18,2 C 0,0 C 83 % 88 % 1019,3 hPa 0,0 l/m 0,0 km/h (0 Bft) W 270 0 min 17,1 C 18,2 C 0,0 km/h (0 Bft)
14.08.2021 02:30 19,9 C 21,1 C 18,9 C 19,3 C 18,1 C 0,0 C 83 % 88 % 1019,3 hPa 0,0 l/m 0,0 km/h (0 Bft) W 270 0 min 16,9 C 18,1 C 0,0 km/h (0 Bft)
14.08.2021 02:35 19,9 C 21,1 C 18,9 C 19,3 C 18,1 C 0,0 C 83 % 88 % 1019,6 hPa 0,0 l/m 0,0 km/h (0 Bft) W 270 0 min 16,9 C 18,1 C 0,0 km/h (0 Bft)
14.08.2021 02:40 19,8 C 21,1 C 18,9 C 19,2 C 18,1 C 0,0 C 83 % 89 % 1019,6 hPa 0,0 l/m 0,0 km/h (0 Bft) W 270 0 min 16,8 C 18,1 C 0,0 km/h (0 Bft)
14.08.2021 02:45 19,7 C 21,1 C 18,8 C 19,2 C 18,2 C 0,0 C 83 % 89 % 1019,6 hPa 0,0 l/m 0,0 km/h (0 Bft) W 270 0 min 16,7 C 18,2 C 0,0 km/h (0 Bft)
14.08.2021 02:50 19,7 C 21,0 C 18,8 C 19,2 C 18,3 C 0,0 C 84 % 89 % 1019,6 hPa 0,0 l/m 0,0 km/h (0 Bft) W 270 0 min 16,9 C 18,3 C 0,0 km/h (0 Bft)
14.08.2021 02:55 19,6 C 21,0 C 18,8 C 19,2 C 18,3 C 0,0 C 84 % 89 % 1019,7 hPa 0,0 l/m 0,0 km/h (0 Bft) W 270 0 min 16,8 C 18,3 C 0,0 km/h (0 Bft)
14.08.2021 03:00 19,6 C 21,0 C 18,9 C 19,2 C 18,4 C 0,0 C 84 % 89 % 1019,7 hPa 0,0 l/m 0,0 km/h (0 Bft) W 270 0 min 16,8 C 18,4 C 0,0 km/h (0 Bft)
14.08.2021 03:05 19,6 C 20,9 C 18,9 C 19,2 C 18,5 C 0,0 C 85 % 89 % 1019,7 hPa 0,0 l/m 0,0 km/h (0 Bft) W 270 0 min 17,0 C 18,5 C 0,0 km/h (0 Bft)
14.08.2021 03:10 19,6 C 20,9 C 18,9 C 19,3 C 18,6 C 0,0 C 85 % 89 % 1019,7 hPa 0,0 l/m 0,0 km/h (0 Bft) W 270 0 min 17,0 C 18,6 C 0,0 km/h (0 Bft)
14.08.2021 03:15 19,5 C 20,9 C 18,9 C 19,2 C 18,6 C 0,0 C 85 % 89 % 1019,4 hPa 0,0 l/m 0,0 km/h (0 Bft) W 270 0 min 16,9 C 18,6 C 0,0 km/h (0 Bft)
14.08.2021 03:20 19,4 C 20,9 C 18,8 C 19,1 C 18,6 C 0,0 C 85 % 89 % 1019,4 hPa 0,0 l/m 0,0 km/h (0 Bft) W 270 0 min 16,8 C 18,6 C 0,0 km/h (0 Bft)
14.08.2021 03:25 19,5 C 20,9 C 18,8 C 19,2 C 18,5 C 0,0 C 85 % 89 % 1019,4 hPa 0,0 l/m 0,0 km/h (0 Bft) W 270 0 min 16,9 C 18,5 C 0,0 km/h (0 Bft)
14.08.2021 03:30 19,5 C 20,9 C 18,8 C 19,2 C 18,5 C 0,0 C 85 % 89 % 1019,4 hPa 0,0 l/m 0,0 km/h (0 Bft) W 270 0 min 16,9 C 18,5 C 0,0 km/h (0 Bft)
14.08.2021 03:35 19,4 C 20,9 C 18,7 C 19,1 C 18,4 C 0,0 C 85 % 89 % 1019,6 hPa 0,0 l/m 0,0 km/h (0 Bft) W 270 0 min 16,8 C 18,4 C 0,0 km/h (0 Bft)
14.08.2021 03:40 19,3 C 20,9 C 18,7 C 19,0 C 18,3 C 0,0 C 85 % 89 % 1019,6 hPa 0,0 l/m 0,0 km/h (0 Bft) W 270 0 min 16,7 C 18,3 C 0,0 km/h (0 Bft)
14.08.2021 03:45 19,2 C 20,9 C 18,5 C 18,9 C 18,3 C 0,0 C 85 % 89 % 1019,6 hPa 0,0 l/m 0,0 km/h (0 Bft) W 270 0 min 16,6 C 18,3 C 0,0 km/h (0 Bft)
14.08.2021 03:50 19,3 C 20,8 C 18,6 C 19,0 C 18,3 C 0,0 C 85 % 89 % 1019,6 hPa 0,0 l/m 0,0 km/h (0 Bft) W 270 0 min 16,7 C 18,3 C 0,0 km/h (0 Bft)
14.08.2021 03:55 19,1 C 20,8 C 18,5 C 18,8 C 18,2 C 0,0 C 85 % 89 % 1019,2 hPa 0,0 l/m 0,0 km/h (0 Bft) W 270 0 min 16,5 C 18,2 C 0,0 km/h (0 Bft)
14.08.2021 04:00 19,1 C 20,9 C 18,5 C 18,8 C 18,1 C 0,0 C 85 % 89 % 1019,2 hPa 0,0 l/m 0,0 km/h (0 Bft) W 270 0 min 16,5 C 18,1 C 0,0 km/h (0 Bft)
14.08.2021 04:05 19,1 C 20,8 C 18,5 C 18,8 C 18,1 C 0,0 C 85 % 89 % 1019,2 hPa 0,0 l/m 0,0 km/h (0 Bft) W 270 0 min 16,5 C 18,1 C 0,0 km/h (0 Bft)
14.08.2021 04:10 19,0 C 20,8 C 18,4 C 18,7 C 18,0 C 0,0 C 85 % 89 % 1019,2 hPa 0,0 l/m 0,0 km/h (0 Bft) W 270 0 min 16,4 C 18,0 C 0,0 km/h (0 Bft)
14.08.2021 04:15 18,9 C 20,8 C 18,4 C 18,6 C 17,9 C 0,0 C 85 % 89 % 1019,2 hPa 0,0 l/m 0,0 km/h (0 Bft) W 270 0 min 16,3 C 17,9 C 0,0 km/h (0 Bft)
14.08.2021 04:20 18,9 C 20,8 C 18,3 C 18,6 C 17,9 C 0,0 C 85 % 89 % 1019,2 hPa 0,0 l/m 0,0 km/h (0 Bft) W 270 0 min 16,3 C 17,9 C 0,0 km/h (0 Bft)
14.08.2021 04:25 18,9 C 20,8 C 18,3 C 18,6 C 17,9 C 0,0 C 85 % 89 % 1019,2 hPa 0,0 l/m 0,0 km/h (0 Bft) W 270 0 min 16,3 C 17,9 C 0,0 km/h (0 Bft)
14.08.2021 04:30 18,8 C 20,8 C 18,3 C 18,5 C 17,9 C 0,0 C 85 % 89 % 1019,2 hPa 0,0 l/m 0,0 km/h (0 Bft) W 270 0 min 16,2 C 17,9 C 0,0 km/h (0 Bft)
14.08.2021 04:35 18,7 C 20,8 C 18,2 C 18,4 C 17,9 C 0,0 C 86 % 89 % 1019,3 hPa 0,0 l/m 0,0 km/h (0 Bft) W 270 0 min 16,3 C 17,9 C 0,0 km/h (0 Bft)
14.08.2021 04:40 18,6 C 20,8 C 18,2 C 18,3 C 17,8 C 0,0 C 85 % 88 % 1019,3 hPa 0,0 l/m 0,0 km/h (0 Bft) W 270 0 min 16,0 C 17,8 C 0,0 km/h (0 Bft)
14.08.2021 04:45 18,5 C 20,8 C 18,0 C 18,2 C 17,7 C 0,0 C 86 % 89 % 1019,3 hPa 0,0 l/m 0,0 km/h (0 Bft) W 270 0 min 16,1 C 17,7 C 0,0 km/h (0 Bft)
14.08.2021 04:50 18,5 C 20,8 C 18,0 C 18,2 C 17,6 C 0,0 C 86 % 89 % 1019,3 hPa 0,0 l/m 0,0 km/h (0 Bft) W 270 0 min 16,1 C 17,6 C 0,0 km/h (0 Bft)
14.08.2021 04:55 18,4 C 20,7 C 17,9 C 18,1 C 17,6 C 0,0 C 86 % 88 % 1019,4 hPa 0,0 l/m 0,0 km/h (0 Bft) W 270 0 min 16,0 C 17,6 C 0,0 km/h (0 Bft)
14.08.2021 05:00 18,3 C 20,7 C 17,9 C 18,0 C 17,5 C 0,0 C 85 % 88 % 1019,4 hPa 0,0 l/m 0,0 km/h (0 Bft) W 270 0 min 15,7 C 17,5 C 0,0 km/h (0 Bft)
14.08.2021 05:05 18,3 C 20,7 C 17,8 C 18,0 C 17,4 C 0,0 C 85 % 88 % 1019,4 hPa 0,0 l/m 0,0 km/h (0 Bft) W 270 0 min 15,7 C 17,4 C 0,0 km/h (0 Bft)
14.08.2021 05:10 18,2 C 20,7 C 17,7 C 17,9 C 17,4 C 0,0 C 85 % 88 % 1019,4 hPa 0,0 l/m 0,0 km/h (0 Bft) W 270 0 min 15,6 C 17,4 C 0,0 km/h (0 Bft)
14.08.2021 05:15 18,1 C 20,7 C 17,6 C 17,8 C 17,2 C 0,0 C 85 % 88 % 1019,2 hPa 0,0 l/m 0,0 km/h (0 Bft) W 270 0 min 15,5 C 17,2 C 0,0 km/h (0 Bft)
14.08.2021 05:20 18,1 C 20,7 C 17,5 C 17,7 C 17,0 C 0,0 C 85 % 88 % 1019,2 hPa 0,0 l/m 0,0 km/h (0 Bft) W 270 0 min 15,5 C 17,0 C 0,0 km/h (0 Bft)
14.08.2021 05:25 17,9 C 20,8 C 17,3 C 17,5 C 16,7 C 0,0 C 85 % 88 % 1019,2 hPa 0,0 l/m 0,0 km/h (0 Bft) W 270 0 min 15,3 C 16,7 C 0,0 km/h (0 Bft)
14.08.2021 05:30 17,9 C 20,8 C 17,3 C 17,4 C 16,5 C 0,0 C 85 % 89 % 1019,2 hPa 0,0 l/m 0,0 km/h (0 Bft) W 270 0 min 15,3 C 16,5 C 0,0 km/h (0 Bft)
14.08.2021 05:35 17,7 C 20,8 C 17,1 C 17,2 C 16,3 C 0,0 C 85 % 89 % 1019,2 hPa 0,0 l/m 0,0 km/h (0 Bft) W 270 0 min 15,1 C 16,3 C 0,0 km/h (0 Bft)
14.08.2021 05:40 17,7 C 20,8 C 17,0 C 17,2 C 16,2 C 0,0 C 85 % 89 % 1019,2 hPa 0,0 l/m 0,0 km/h (0 Bft) W 270 0 min 15,1 C 16,2 C 0,0 km/h (0 Bft)
14.08.2021 05:45 17,5 C 20,8 C 16,9 C 17,0 C 15,9 C 0,0 C 85 % 89 % 1019,2 hPa 0,0 l/m 0,0 km/h (0 Bft) W 270 0 min 14,9 C 15,9 C 0,0 km/h (0 Bft)
14.08.2021 05:50 17,4 C 20,8 C 16,7 C 16,8 C 15,7 C 0,0 C 85 % 89 % 1019,2 hPa 0,0 l/m 0,0 km/h (0 Bft) W 270 0 min 14,8 C 15,7 C 0,0 km/h (0 Bft)
14.08.2021 05:55 17,2 C 20,8 C 16,6 C 16,6 C 15,5 C 0,0 C 85 % 89 % 1019,4 hPa 0,0 l/m 0,0 km/h (0 Bft) W 270 0 min 14,7 C 15,5 C 0,0 km/h (0 Bft)
14.08.2021 06:00 17,2 C 20,7 C 16,5 C 16,6 C 15,5 C 0,0 C 86 % 89 % 1019,4 hPa 0,0 l/m 0,0 km/h (0 Bft) W 270 0 min 14,8 C 15,5 C 0,0 km/h (0 Bft)
14.08.2021 06:05 17,0 C 20,7 C 16,5 C 16,5 C 15,5 C 0,0 C 86 % 90 % 1019,4 hPa 0,0 l/m 0,0 km/h (0 Bft) W 270 0 min 14,6 C 15,5 C 0,0 km/h (0 Bft)
14.08.2021 06:10 17,0 C 20,7 C 16,4 C 16,5 C 15,4 C 0,0 C 86 % 90 % 1019,4 hPa 0,0 l/m 0,0 km/h (0 Bft) W 270 0 min 14,6 C 15,4 C 0,0 km/h (0 Bft)
14.08.2021 06:15 16,8 C 20,7 C 16,3 C 16,3 C 15,3 C 0,0 C 86 % 90 % 1019,2 hPa 0,0 l/m 0,0 km/h (0 Bft) W 270 0 min 14,4 C 15,3 C 0,0 km/h (0 Bft)
14.08.2021 06:20 16,9 C 20,7 C 16,3 C 16,4 C 15,3 C 0,0 C 86 % 90 % 1019,2 hPa 0,0 l/m 0,0 km/h (0 Bft) W 270 0 min 14,5 C 15,3 C 0,0 km/h (0 Bft)
14.08.2021 06:25 16,8 C 20,7 C 16,3 C 16,3 C 15,3 C 0,0 C 86 % 90 % 1019,2 hPa 0,0 l/m 0,0 km/h (0 Bft) W 270 0 min 14,4 C 15,3 C 0,0 km/h (0 Bft)
14.08.2021 06:30 16,7 C 20,7 C 16,4 C 16,3 C 15,4 C 0,0 C 86 % 91 % 1019,2 hPa 0,0 l/m 0,0 km/h (0 Bft) W 270 0 min 14,3 C 15,4 C 0,0 km/h (0 Bft)
14.08.2021 06:35 16,7 C 20,7 C 16,5 C 16,4 C 15,7 C 0,0 C 86 % 91 % 1019,4 hPa 0,0 l/m 0,0 km/h (0 Bft) W 270 0 min 14,3 C 15,7 C 0,0 km/h (0 Bft)
14.08.2021 06:40 16,8 C 20,7 C 16,5 C 16,5 C 15,9 C 0,0 C 86 % 91 % 1019,4 hPa 0,0 l/m 0,0 km/h (0 Bft) W 270 0 min 14,4 C 15,9 C 0,0 km/h (0 Bft)
14.08.2021 06:45 16,8 C 20,7 C 16,5 C 16,5 C 16,0 C 0,0 C 87 % 91 % 1019,4 hPa 0,0 l/m 0,0 km/h (0 Bft) W 270 0 min 14,6 C 16,0 C 0,0 km/h (0 Bft)
14.08.2021 06:50 16,7 C 20,6 C 16,6 C 16,5 C 16,0 C 0,0 C 87 % 91 % 1019,4 hPa 0,0 l/m 0,0 km/h (0 Bft) W 270 0 min 14,5 C 16,0 C 0,0 km/h (0 Bft)
14.08.2021 06:55 16,7 C 20,6 C 16,7 C 16,5 C 16,2 C 0,0 C 87 % 91 % 1019,6 hPa 0,0 l/m 0,0 km/h (0 Bft) W 270 0 min 14,5 C 16,2 C 0,0 km/h (0 Bft)
14.08.2021 07:00 16,7 C 20,6 C 16,8 C 16,6 C 16,4 C 0,0 C 87 % 91 % 1019,6 hPa 0,0 l/m 0,0 km/h (0 Bft) W 270 0 min 14,5 C 16,4 C 0,0 km/h (0 Bft)
14.08.2021 07:05 16,7 C 20,6 C 16,7 C 16,6 C 16,4 C 0,0 C 87 % 91 % 1019,6 hPa 0,0 l/m 0,0 km/h (0 Bft) W 270 0 min 14,5 C 16,4 C 0,0 km/h (0 Bft)
14.08.2021 07:10 16,7 C 20,6 C 16,8 C 16,6 C 16,4 C 0,0 C 87 % 91 % 1019,6 hPa 0,0 l/m 0,0 km/h (0 Bft) W 270 0 min 14,5 C 16,4 C 0,0 km/h (0 Bft)
14.08.2021 07:15 16,7 C 20,6 C 17,0 C 18,3 C 18,3 C 1,6 C 87 % 90 % 1019,5 hPa 0,0 l/m 0,0 km/h (0 Bft) W 270 0 min 14,5 C 18,3 C 0,0 km/h (0 Bft)
14.08.2021 07:20 16,8 C 20,6 C 17,1 C 19,5 C 19,5 C 2,7 C 87 % 90 % 1019,5 hPa 0,0 l/m 0,0 km/h (0 Bft) W 270 5 min 14,6 C 19,5 C 0,0 km/h (0 Bft)
14.08.2021 07:25 16,9 C 20,6 C 17,4 C 21,8 C 21,8 C 4,9 C 87 % 90 % 1019,5 hPa 0,0 l/m 0,0 km/h (0 Bft) W 270 5 min 14,7 C 21,8 C 0,0 km/h (0 Bft)
14.08.2021 07:30 17,1 C 20,5 C 17,5 C 23,3 C 23,3 C 6,2 C 87 % 90 % 1019,5 hPa 0,0 l/m 0,0 km/h (0 Bft) W 270 5 min 14,9 C 23,3 C 0,0 km/h (0 Bft)
14.08.2021 07:35 17,3 C 20,5 C 17,6 C 25,0 C 25,0 C 7,7 C 87 % 90 % 1019,3 hPa 0,0 l/m 0,0 km/h (0 Bft) W 270 5 min 15,1 C 25,0 C 0,0 km/h (0 Bft)
14.08.2021 07:40 17,5 C 20,5 C 17,7 C 25,8 C 25,8 C 8,3 C 87 % 90 % 1019,3 hPa 0,0 l/m 0,0 km/h (0 Bft) W 270 5 min 15,3 C 25,8 C 0,0 km/h (0 Bft)
14.08.2021 07:45 17,7 C 20,4 C 17,9 C 27,1 C 27,1 C 9,4 C 87 % 90 % 1019,3 hPa 0,0 l/m 0,0 km/h (0 Bft) W 270 5 min 15,5 C 27,1 C 0,0 km/h (0 Bft)
14.08.2021 07:50 18,1 C 20,4 C 18,0 C 27,7 C 27,7 C 9,6 C 87 % 89 % 1019,3 hPa 0,0 l/m 0,0 km/h (0 Bft) W 270 5 min 15,9 C 27,7 C 0,0 km/h (0 Bft)
14.08.2021 07:55 18,5 C 20,4 C 18,0 C 28,4 C 28,4 C 9,9 C 87 % 89 % 1019,4 hPa 0,0 l/m 0,0 km/h (0 Bft) W 270 5 min 16,3 C 28,4 C 0,0 km/h (0 Bft)
14.08.2021 08:00 19,1 C 20,3 C 18,1 C 29,0 C 29,0 C 9,9 C 87 % 89 % 1019,4 hPa 0,0 l/m 0,0 km/h (0 Bft) W 270 5 min 16,9 C 29,0 C 0,0 km/h (0 Bft)
14.08.2021 08:05 19,6 C 20,3 C 18,1 C 29,8 C 29,8 C 10,2 C 87 % 88 % 1019,4 hPa 0,0 l/m 0,0 km/h (0 Bft) W 270 5 min 17,4 C 29,8 C 0,0 km/h (0 Bft)
14.08.2021 08:10 20,0 C 20,2 C 18,2 C 30,1 C 30,1 C 10,1 C 86 % 88 % 1019,4 hPa 0,0 l/m 0,0 km/h (0 Bft) W 270 5 min 17,6 C 30,1 C 0,0 km/h (0 Bft)
14.08.2021 08:15 20,4 C 20,2 C 18,3 C 30,8 C 30,8 C 10,4 C 85 % 88 % 1019,5 hPa 0,0 l/m 0,0 km/h (0 Bft) W 270 5 min 17,8 C 30,8 C 0,0 km/h (0 Bft)
14.08.2021 08:20 20,8 C 20,1 C 18,3 C 31,1 C 31,1 C 10,3 C 84 % 88 % 1019,5 hPa 0,0 l/m 0,0 km/h (0 Bft) W 270 5 min 18,0 C 31,1 C 0,0 km/h (0 Bft)
14.08.2021 08:25 21,3 C 20,1 C 18,5 C 31,5 C 31,5 C 10,2 C 83 % 87 % 1019,5 hPa 0,0 l/m 0,0 km/h (0 Bft) W 270 5 min 18,3 C 31,5 C 0,0 km/h (0 Bft)
14.08.2021 08:30 21,7 C 20,1 C 18,5 C 31,9 C 31,9 C 10,2 C 82 % 87 % 1019,5 hPa 0,0 l/m 0,0 km/h (0 Bft) W 270 5 min 18,5 C 31,9 C 0,0 km/h (0 Bft)
14.08.2021 08:35 22,4 C 20,1 C 18,6 C 32,3 C 32,3 C 9,9 C 80 % 87 % 1019,5 hPa 0,0 l/m 0,0 km/h (0 Bft) W 270 5 min 18,8 C 32,3 C 0,0 km/h (0 Bft)
14.08.2021 08:40 22,8 C 20,0 C 18,7 C 32,4 C 32,4 C 9,6 C 78 % 86 % 1019,5 hPa 0,0 l/m 0,0 km/h (0 Bft) W 270 5 min 18,8 C 32,4 C 0,0 km/h (0 Bft)
14.08.2021 08:45 23,5 C 20,0 C 18,8 C 32,7 C 32,7 C 9,2 C 77 % 86 % 1019,5 hPa 0,0 l/m 0,0 km/h (0 Bft) W 270 5 min 19,2 C 32,7 C 0,0 km/h (0 Bft)
14.08.2021 08:50 23,9 C 20,0 C 18,8 C 32,9 C 32,9 C 9,0 C 74 % 86 % 1019,5 hPa 0,0 l/m 0,0 km/h (0 Bft) W 270 5 min 19,0 C 32,9 C 0,0 km/h (0 Bft)
14.08.2021 08:55 24,2 C 20,0 C 19,0 C 33,0 C 33,0 C 8,8 C 72 % 86 % 1019,8 hPa 0,0 l/m 0,0 km/h (0 Bft) W 270 5 min 18,8 C 33,0 C 0,0 km/h (0 Bft)
14.08.2021 09:00 24,5 C 20,0 C 19,0 C 33,0 C 33,0 C 8,5 C 71 % 86 % 1019,8 hPa 0,0 l/m 0,0 km/h (0 Bft) W 270 5 min 18,9 C 33,0 C 0,0 km/h (0 Bft)
14.08.2021 09:05 24,5 C 20,0 C 19,1 C 32,9 C 32,9 C 8,4 C 68 % 86 % 1019,8 hPa 0,0 l/m 0,0 km/h (0 Bft) W 270 5 min 18,2 C 32,9 C 0,0 km/h (0 Bft)
14.08.2021 09:10 24,2 C 20,0 C 19,1 C 31,4 C 31,4 C 7,2 C 68 % 85 % 1019,8 hPa 0,0 l/m 0,0 km/h (0 Bft) W 270 5 min 17,9 C 31,4 C 0,0 km/h (0 Bft)
14.08.2021 09:15 23,9 C 20,0 C 19,3 C 28,3 C 28,3 C 4,4 C 68 % 85 % 1019,7 hPa 0,0 l/m 0,0 km/h (0 Bft) W 270 5 min 17,6 C 28,3 C 0,0 km/h (0 Bft)
14.08.2021 09:20 23,7 C 20,0 C 19,4 C 26,4 C 26,4 C 2,7 C 68 % 85 % 1019,7 hPa 0,0 l/m 0,0 km/h (0 Bft) W 270 0 min 17,4 C 26,4 C 0,0 km/h (0 Bft)
14.08.2021 09:25 23,5 C 20,0 C 19,4 C 24,9 C 24,9 C 1,4 C 68 % 85 % 1019,7 hPa 0,0 l/m 0,0 km/h (0 Bft) W 270 0 min 17,2 C 24,9 C 0,0 km/h (0 Bft)
14.08.2021 09:30 23,5 C 20,0 C 19,5 C 24,5 C 24,5 C 1,0 C 69 % 85 % 1019,7 hPa 0,0 l/m 0,0 km/h (0 Bft) W 270 0 min 17,5 C 24,5 C 0,0 km/h (0 Bft)
14.08.2021 09:35 23,3 C 19,9 C 19,5 C 24,3 C 24,3 C 1,0 C 68 % 84 % 1019,6 hPa 0,0 l/m 0,2 km/h (0 Bft) NW 315 0 min 17,1 C 24,3 C 0,0 km/h (0 Bft)
14.08.2021 09:40 23,1 C 19,8 C 19,6 C 23,9 C 23,9 C 0,8 C 68 % 83 % 1019,6 hPa 0,0 l/m 0,2 km/h (0 Bft) SW 225 0 min 16,9 C 23,9 C 0,0 km/h (0 Bft)
14.08.2021 09:45 22,8 C 19,8 C 19,7 C 23,6 C 23,6 C 0,8 C 68 % 82 % 1019,6 hPa 0,0 l/m 0,2 km/h (0 Bft) W 270 0 min 16,6 C 23,6 C 0,0 km/h (0 Bft)
14.08.2021 09:50 22,7 C 19,8 C 19,8 C 23,7 C 23,7 C 1,0 C 68 % 82 % 1019,6 hPa 0,0 l/m 0,2 km/h (0 Bft) SW 225 0 min 16,5 C 23,7 C 1,9 km/h (1 Bft)
14.08.2021 09:55 22,4 C 19,8 C 19,9 C 23,3 C 23,3 C 0,9 C 67 % 81 % 1019,4 hPa 0,0 l/m 0,8 km/h (0 Bft) SW 225 0 min 16,0 C 23,3 C 1,8 km/h (1 Bft)
14.08.2021 10:00 22,3 C 19,8 C 19,9 C 23,2 C 23,2 C 0,9 C 67 % 80 % 1019,4 hPa 0,0 l/m 1,4 km/h (1 Bft) W 270 0 min 15,9 C 23,2 C 2,7 km/h (1 Bft)
14.08.2021 10:05 22,2 C 19,8 C 20,0 C 24,1 C 24,1 C 1,9 C 66 % 79 % 1019,4 hPa 0,0 l/m 0,8 km/h (0 Bft) W-SW 247 0 min 15,5 C 24,1 C 0,0 km/h (0 Bft)
14.08.2021 10:10 22,3 C 19,8 C 20,1 C 25,0 C 25,0 C 2,7 C 67 % 79 % 1019,4 hPa 0,0 l/m 0,3 km/h (0 Bft) S-SW 202 0 min 15,9 C 25,0 C 0,0 km/h (0 Bft)
14.08.2021 10:15 22,3 C 19,8 C 20,3 C 24,5 C 24,5 C 2,2 C 67 % 78 % 1019,4 hPa 0,0 l/m 0,6 km/h (0 Bft) S-SW 202 0 min 15,9 C 24,5 C 2,7 km/h (1 Bft)
14.08.2021 10:20 22,3 C 19,8 C 20,3 C 24,2 C 24,2 C 1,9 C 66 % 77 % 1019,4 hPa 0,0 l/m 1,1 km/h (1 Bft) W-SW 247 0 min 15,6 C 24,2 C 4,0 km/h (1 Bft)
14.08.2021 10:25 22,4 C 19,8 C 20,4 C 23,9 C 23,9 C 1,5 C 66 % 77 % 1019,4 hPa 0,0 l/m 0,6 km/h (0 Bft) W-SW 247 0 min 15,7 C 23,9 C 0,0 km/h (0 Bft)
14.08.2021 10:30 22,5 C 19,8 C 20,5 C 24,3 C 24,3 C 1,8 C 66 % 77 % 1019,4 hPa 0,0 l/m 0,5 km/h (0 Bft) W 270 0 min 15,8 C 24,3 C 2,9 km/h (1 Bft)
14.08.2021 10:35 22,4 C 19,8 C 20,7 C 24,9 C 24,9 C 2,5 C 67 % 77 % 1019,7 hPa 0,0 l/m 1,1 km/h (1 Bft) SW 225 0 min 16,0 C 24,9 C 2,6 km/h (1 Bft)
14.08.2021 10:40 22,5 C 19,8 C 20,7 C 24,5 C 24,5 C 2,0 C 66 % 77 % 1019,7 hPa 0,0 l/m 1,4 km/h (1 Bft) O-NO 67 0 min 15,8 C 24,5 C 2,7 km/h (1 Bft)
14.08.2021 10:45 22,6 C 19,8 C 20,8 C 24,1 C 24,1 C 1,5 C 66 % 76 % 1019,7 hPa 0,0 l/m 1,1 km/h (1 Bft) SW 225 0 min 15,9 C 24,1 C 1,6 km/h (1 Bft)
14.08.2021 10:50 22,7 C 19,8 C 20,9 C 24,0 C 24,0 C 1,3 C 67 % 77 % 1019,7 hPa 0,0 l/m 0,6 km/h (0 Bft) SW 225 0 min 16,2 C 24,0 C 0,0 km/h (0 Bft)
14.08.2021 10:55 22,7 C 19,8 C 21,0 C 24,0 C 24,0 C 1,3 C 66 % 75 % 1019,9 hPa 0,0 l/m 0,5 km/h (0 Bft) S 180 0 min 16,0 C 24,0 C 0,0 km/h (0 Bft)
14.08.2021 11:00 22,8 C 19,8 C 21,1 C 24,1 C 24,1 C 1,3 C 66 % 75 % 1019,9 hPa 0,0 l/m 0,5 km/h (0 Bft) W-SW 247 0 min 16,1 C 24,1 C 0,0 km/h (0 Bft)
14.08.2021 11:05 22,9 C 19,8 C 21,3 C 24,1 C 24,1 C 1,2 C 65 % 75 % 1019,9 hPa 0,0 l/m 0,8 km/h (0 Bft) SW 225 0 min 16,0 C 24,1 C 3,1 km/h (1 Bft)
14.08.2021 11:10 23,1 C 19,8 C 21,4 C 24,1 C 24,1 C 1,0 C 66 % 74 % 1019,9 hPa 0,0 l/m 1,1 km/h (1 Bft) W-NW 292 0 min 16,4 C 24,1 C 2,1 km/h (1 Bft)
14.08.2021 11:15 23,3 C 19,8 C 21,6 C 24,3 C 24,3 C 1,0 C 66 % 73 % 1019,4 hPa 0,0 l/m 0,8 km/h (0 Bft) NO 45 0 min 16,6 C 24,3 C 1,9 km/h (1 Bft)
14.08.2021 11:20 23,3 C 19,8 C 21,8 C 24,4 C 24,4 C 1,1 C 65 % 73 % 1019,4 hPa 0,0 l/m 1,0 km/h (0 Bft) SW 225 0 min 16,3 C 24,4 C 0,0 km/h (0 Bft)
14.08.2021 11:25 23,4 C 19,8 C 21,9 C 24,4 C 24,4 C 1,0 C 65 % 73 % 1019,4 hPa 0,0 l/m 1,3 km/h (1 Bft) S-SW 202 0 min 16,4 C 24,4 C 1,6 km/h (1 Bft)
14.08.2021 11:30 23,4 C 19,8 C 22,1 C 24,5 C 24,5 C 1,1 C 65 % 72 % 1019,4 hPa 0,0 l/m 0,8 km/h (0 Bft) SW 225 0 min 16,4 C 24,5 C 6,6 km/h (2 Bft)
14.08.2021 11:35 23,6 C 19,8 C 22,2 C 24,7 C 24,7 C 1,1 C 64 % 71 % 1019,2 hPa 0,0 l/m 1,0 km/h (0 Bft) SW 225 0 min 16,4 C 24,7 C 2,4 km/h (1 Bft)
14.08.2021 11:40 23,7 C 19,8 C 22,4 C 24,7 C 24,7 C 1,0 C 62 % 70 % 1019,2 hPa 0,0 l/m 1,4 km/h (1 Bft) SO 135 0 min 16,0 C 24,7 C 7,2 km/h (2 Bft)
14.08.2021 11:45 23,9 C 19,8 C 22,7 C 24,9 C 24,9 C 1,0 C 63 % 70 % 1019,2 hPa 0,0 l/m 1,6 km/h (1 Bft) SW 225 0 min 16,4 C 24,9 C 1,8 km/h (1 Bft)
14.08.2021 11:50 23,9 C 19,8 C 22,9 C 25,0 C 25,0 C 1,1 C 62 % 69 % 1019,2 hPa 0,0 l/m 1,9 km/h (1 Bft) SW 225 0 min 16,2 C 25,0 C 7,2 km/h (2 Bft)
14.08.2021 11:55 24,1 C 19,8 C 22,9 C 25,1 C 25,1 C 1,0 C 62 % 67 % 1019,2 hPa 0,0 l/m 1,6 km/h (1 Bft) N-NW 337 0 min 16,4 C 25,1 C 0,0 km/h (0 Bft)
14.08.2021 12:00 24,1 C 19,8 C 23,0 C 25,3 C 25,3 C 1,2 C 61 % 66 % 1019,2 hPa 0,0 l/m 1,6 km/h (1 Bft) S 180 0 min 16,1 C 25,3 C 2,6 km/h (1 Bft)
14.08.2021 12:05 24,2 C 19,9 C 23,1 C 25,4 C 25,4 C 1,2 C 60 % 67 % 1019,2 hPa 0,0 l/m 1,9 km/h (1 Bft) W-NW 292 0 min 15,9 C 25,4 C 5,3 km/h (1 Bft)
14.08.2021 12:10 24,3 C 19,8 C 23,2 C 25,7 C 25,7 C 1,4 C 59 % 66 % 1019,2 hPa 0,0 l/m 2,3 km/h (1 Bft) W-SW 247 0 min 15,8 C 25,7 C 3,2 km/h (1 Bft)
14.08.2021 12:15 24,5 C 19,8 C 23,4 C 25,9 C 25,9 C 1,4 C 59 % 65 % 1019,2 hPa 0,0 l/m 2,1 km/h (1 Bft) W-SW 247 0 min 15,9 C 25,9 C 2,6 km/h (1 Bft)
14.08.2021 12:20 24,6 C 19,8 C 23,5 C 25,9 C 25,9 C 1,3 C 59 % 65 % 1019,2 hPa 0,0 l/m 1,9 km/h (1 Bft) SW 225 0 min 16,0 C 25,9 C 2,7 km/h (1 Bft)
14.08.2021 12:25 25,0 C 19,8 C 23,5 C 26,1 C 26,1 C 1,1 C 59 % 66 % 1019,2 hPa 0,0 l/m 1,6 km/h (1 Bft) W-SW 247 0 min 16,4 C 26,1 C 2,4 km/h (1 Bft)
14.08.2021 12:30 25,2 C 19,8 C 23,6 C 26,5 C 26,5 C 1,3 C 59 % 64 % 1019,2 hPa 0,0 l/m 1,1 km/h (1 Bft) O-SO 112 0 min 16,6 C 26,5 C 0,0 km/h (0 Bft)
14.08.2021 12:35 25,6 C 19,8 C 23,7 C 28,2 C 28,2 C 2,6 C 56 % 63 % 1019,1 hPa 0,0 l/m 1,0 km/h (0 Bft) S-SW 202 0 min 16,2 C 28,2 C 3,5 km/h (1 Bft)
14.08.2021 12:40 25,9 C 19,8 C 23,8 C 29,5 C 29,5 C 3,6 C 56 % 64 % 1019,1 hPa 0,0 l/m 1,0 km/h (0 Bft) SW 225 5 min 16,4 C 29,5 C 1,6 km/h (1 Bft)
14.08.2021 12:45 26,1 C 19,8 C 24,0 C 31,2 C 31,2 C 5,1 C 55 % 64 % 1019,1 hPa 0,0 l/m 1,4 km/h (1 Bft) SW 225 5 min 16,3 C 31,2 C 4,8 km/h (1 Bft)
14.08.2021 12:50 26,3 C 19,8 C 24,1 C 31,8 C 31,8 C 5,5 C 55 % 63 % 1019,1 hPa 0,0 l/m 1,4 km/h (1 Bft) W 270 5 min 16,5 C 31,8 C 5,6 km/h (1 Bft)
14.08.2021 12:55 26,3 C 19,8 C 24,3 C 32,7 C 32,7 C 6,4 C 55 % 62 % 1018,8 hPa 0,0 l/m 1,4 km/h (1 Bft) S-SW 202 5 min 16,5 C 32,7 C 3,1 km/h (1 Bft)
14.08.2021 13:00 26,5 C 19,8 C 24,4 C 32,9 C 32,9 C 6,4 C 53 % 61 % 1018,8 hPa 0,0 l/m 1,4 km/h (1 Bft) S-SO 157 5 min 16,1 C 32,9 C 0,0 km/h (0 Bft)
14.08.2021 13:05 27,2 C 19,8 C 24,5 C 33,2 C 33,2 C 6,0 C 51 % 58 % 1018,8 hPa 0,0 l/m 0,6 km/h (0 Bft) O-NO 67 5 min 16,2 C 33,2 C 0,0 km/h (0 Bft)
14.08.2021 13:10 27,7 C 19,8 C 24,6 C 33,6 C 33,6 C 5,9 C 51 % 59 % 1018,8 hPa 0,0 l/m 0,0 km/h (0 Bft) SW 225 5 min 16,6 C 33,6 C 0,0 km/h (0 Bft)
14.08.2021 13:15 28,3 C 19,8 C 24,8 C 34,0 C 34,0 C 5,7 C 49 % 60 % 1018,5 hPa 0,0 l/m 0,5 km/h (0 Bft) S 180 5 min 16,5 C 34,0 C 1,9 km/h (1 Bft)
14.08.2021 13:20 28,4 C 19,9 C 24,8 C 33,9 C 33,9 C 5,5 C 48 % 59 % 1018,5 hPa 0,0 l/m 0,8 km/h (0 Bft) SW 225 5 min 16,3 C 33,9 C 0,0 km/h (0 Bft)
14.08.2021 13:25 28,9 C 19,9 C 25,2 C 34,2 C 34,2 C 5,3 C 47 % 58 % 1018,5 hPa 0,0 l/m 1,0 km/h (0 Bft) S 180 5 min 16,4 C 34,2 C 0,0 km/h (0 Bft)
14.08.2021 13:30 29,0 C 19,9 C 26,1 C 34,3 C 34,3 C 5,3 C 46 % 57 % 1018,5 hPa 0,0 l/m 0,6 km/h (0 Bft) S-SW 202 5 min 16,2 C 34,3 C 7,6 km/h (2 Bft)
14.08.2021 13:35 28,8 C 19,9 C 26,2 C 34,2 C 34,2 C 5,4 C 45 % 54 % 1018,4 hPa 0,0 l/m 1,4 km/h (1 Bft) W-SW 247 5 min 15,7 C 34,2 C 0,0 km/h (0 Bft)
14.08.2021 13:40 28,7 C 19,9 C 26,0 C 34,2 C 34,2 C 5,5 C 46 % 55 % 1018,4 hPa 0,0 l/m 1,9 km/h (1 Bft) W 270 5 min 15,9 C 34,2 C 1,9 km/h (1 Bft)
14.08.2021 13:45 29,0 C 19,9 C 26,1 C 34,5 C 34,5 C 5,5 C 45 % 56 % 1018,4 hPa 0,0 l/m 1,0 km/h (0 Bft) SW 225 5 min 15,8 C 34,5 C 1,8 km/h (1 Bft)
14.08.2021 13:50 29,2 C 19,9 C 26,1 C 34,6 C 34,6 C 5,4 C 45 % 55 % 1018,4 hPa 0,0 l/m 0,8 km/h (0 Bft) S-SO 157 5 min 16,0 C 34,6 C 2,3 km/h (1 Bft)
14.08.2021 13:55 29,5 C 19,8 C 26,1 C 34,6 C 34,6 C 5,1 C 44 % 55 % 1018,5 hPa 0,0 l/m 1,3 km/h (1 Bft) SO 135 5 min 15,9 C 34,6 C 3,9 km/h (1 Bft)
14.08.2021 14:00 29,4 C 19,8 C 26,3 C 34,3 C 34,3 C 4,9 C 44 % 54 % 1018,5 hPa 0,0 l/m 1,8 km/h (1 Bft) SW 225 5 min 15,8 C 34,3 C 10,0 km/h (2 Bft)
14.08.2021 14:05 29,3 C 19,9 C 26,4 C 34,1 C 34,1 C 4,8 C 43 % 52 % 1018,5 hPa 0,0 l/m 2,4 km/h (1 Bft) SW 225 5 min 15,4 C 34,1 C 2,9 km/h (1 Bft)
14.08.2021 14:10 29,1 C 19,9 C 26,5 C 33,9 C 33,9 C 4,8 C 43 % 53 % 1018,5 hPa 0,0 l/m 2,7 km/h (1 Bft) S 180 5 min 15,2 C 33,9 C 3,4 km/h (1 Bft)
14.08.2021 14:15 28,8 C 19,9 C 26,7 C 33,9 C 33,9 C 5,1 C 44 % 53 % 1018,6 hPa 0,0 l/m 2,3 km/h (1 Bft) W 270 5 min 15,3 C 33,9 C 4,5 km/h (1 Bft)
14.08.2021 14:20 28,9 C 19,9 C 26,6 C 34,2 C 34,2 C 5,3 C 45 % 53 % 1018,6 hPa 0,0 l/m 1,3 km/h (1 Bft) SW 225 5 min 15,8 C 34,2 C 2,3 km/h (1 Bft)
14.08.2021 14:25 29,2 C 19,9 C 26,7 C 34,7 C 34,7 C 5,5 C 44 % 53 % 1018,6 hPa 0,0 l/m 1,3 km/h (1 Bft) SW 225 5 min 15,7 C 34,7 C 2,7 km/h (1 Bft)
14.08.2021 14:30 29,2 C 19,9 C 26,8 C 34,8 C 34,8 C 5,6 C 44 % 52 % 1018,6 hPa 0,0 l/m 1,0 km/h (0 Bft) N 360 5 min 15,7 C 34,8 C 0,0 km/h (0 Bft)
14.08.2021 14:35 29,0 C 20,0 C 26,8 C 35,0 C 35,0 C 6,0 C 43 % 52 % 1018,0 hPa 0,0 l/m 1,1 km/h (1 Bft) SW 225 5 min 15,1 C 35,0 C 0,0 km/h (0 Bft)
14.08.2021 14:40 29,1 C 20,0 C 26,8 C 35,3 C 35,3 C 6,2 C 43 % 52 % 1018,0 hPa 0,0 l/m 1,3 km/h (1 Bft) W 270 5 min 15,2 C 35,3 C 2,9 km/h (1 Bft)
14.08.2021 14:45 29,1 C 20,0 C 26,9 C 35,1 C 35,1 C 6,0 C 43 % 50 % 1018,0 hPa 0,0 l/m 1,4 km/h (1 Bft) NW 315 5 min 15,2 C 35,1 C 3,5 km/h (1 Bft)
14.08.2021 14:50 29,0 C 20,0 C 26,9 C 34,9 C 34,9 C 5,9 C 43 % 51 % 1018,0 hPa 0,0 l/m 2,1 km/h (1 Bft) W 270 5 min 15,1 C 34,9 C 3,2 km/h (1 Bft)
14.08.2021 14:55 28,7 C 20,0 C 26,9 C 34,8 C 34,8 C 6,1 C 43 % 52 % 1017,9 hPa 0,0 l/m 1,9 km/h (1 Bft) SW 225 5 min 14,9 C 34,8 C 0,0 km/h (0 Bft)
14.08.2021 15:00 28,7 C 20,0 C 26,9 C 34,9 C 34,9 C 6,2 C 43 % 51 % 1017,9 hPa 0,0 l/m 1,6 km/h (1 Bft) S-SW 202 5 min 14,9 C 34,9 C 0,0 km/h (0 Bft)
14.08.2021 15:05 28,8 C 20,1 C 27,1 C 35,2 C 35,2 C 6,4 C 44 % 51 % 1017,9 hPa 0,0 l/m 1,0 km/h (0 Bft) SW 225 5 min 15,3 C 35,2 C 2,4 km/h (1 Bft)
14.08.2021 15:10 28,9 C 20,1 C 27,3 C 35,5 C 35,5 C 6,6 C 44 % 52 % 1017,9 hPa 0,0 l/m 1,0 km/h (0 Bft) SW 225 5 min 15,4 C 35,5 C 1,9 km/h (1 Bft)
14.08.2021 15:15 28,9 C 20,1 C 27,3 C 35,4 C 35,4 C 6,5 C 44 % 51 % 1017,6 hPa 0,0 l/m 1,6 km/h (1 Bft) SW 225 5 min 15,4 C 35,4 C 1,8 km/h (1 Bft)
14.08.2021 15:20 28,9 C 20,1 C 27,3 C 35,3 C 35,3 C 6,4 C 43 % 51 % 1017,6 hPa 0,0 l/m 1,8 km/h (1 Bft) S-SW 202 5 min 15,0 C 35,3 C 5,6 km/h (1 Bft)
14.08.2021 15:25 28,9 C 20,2 C 27,2 C 35,1 C 35,1 C 6,2 C 43 % 50 % 1017,6 hPa 0,0 l/m 1,8 km/h (1 Bft) S-SW 202 5 min 15,0 C 35,1 C 1,6 km/h (1 Bft)
14.08.2021 15:30 28,7 C 20,2 C 27,2 C 34,9 C 34,9 C 6,2 C 44 % 51 % 1017,6 hPa 0,0 l/m 1,6 km/h (1 Bft) SW 225 5 min 15,2 C 34,9 C 2,3 km/h (1 Bft)
14.08.2021 15:35 28,8 C 20,2 C 27,3 C 35,3 C 35,3 C 6,5 C 44 % 50 % 1017,6 hPa 0,0 l/m 1,1 km/h (1 Bft) W-SW 247 5 min 15,3 C 35,3 C 4,7 km/h (1 Bft)
14.08.2021 15:40 28,8 C 20,2 C 27,3 C 35,2 C 35,2 C 6,4 C 44 % 51 % 1017,6 hPa 0,0 l/m 1,8 km/h (1 Bft) S 180 5 min 15,3 C 35,2 C 3,5 km/h (1 Bft)
14.08.2021 15:45 28,9 C 20,2 C 27,5 C 35,4 C 35,4 C 6,5 C 45 % 50 % 1017,6 hPa 0,0 l/m 1,9 km/h (1 Bft) SW 225 5 min 15,8 C 35,4 C 2,1 km/h (1 Bft)
14.08.2021 15:50 29,0 C 20,3 C 27,6 C 35,4 C 35,4 C 6,4 C 45 % 50 % 1017,6 hPa 0,0 l/m 1,8 km/h (1 Bft) NW 315 5 min 15,8 C 35,4 C 3,1 km/h (1 Bft)
14.08.2021 15:55 29,1 C 20,3 C 27,7 C 35,5 C 35,5 C 6,4 C 45 % 51 % 1017,6 hPa 0,0 l/m 1,8 km/h (1 Bft) W-SW 247 5 min 15,9 C 35,5 C 2,1 km/h (1 Bft)
14.08.2021 16:00 29,1 C 20,3 C 27,7 C 35,5 C 35,5 C 6,4 C 45 % 48 % 1017,6 hPa 0,0 l/m 1,9 km/h (1 Bft) S 180 5 min 15,9 C 35,5 C 3,7 km/h (1 Bft)
14.08.2021 16:05 29,1 C 20,3 C 27,7 C 35,4 C 35,4 C 6,3 C 45 % 51 % 1017,6 hPa 0,0 l/m 1,9 km/h (1 Bft) W-SW 247 5 min 15,9 C 35,4 C 1,9 km/h (1 Bft)
14.08.2021 16:10 29,1 C 20,3 C 27,7 C 35,3 C 35,3 C 6,2 C 45 % 50 % 1017,6 hPa 0,0 l/m 2,3 km/h (1 Bft) SW 225 5 min 15,9 C 35,3 C 1,9 km/h (1 Bft)
14.08.2021 16:15 29,1 C 20,4 C 27,7 C 35,3 C 35,3 C 6,2 C 45 % 51 % 1017,2 hPa 0,0 l/m 1,8 km/h (1 Bft) SW 225 5 min 15,9 C 35,3 C 4,2 km/h (1 Bft)
14.08.2021 16:20 29,2 C 20,4 C 27,7 C 35,4 C 35,4 C 6,2 C 45 % 49 % 1017,2 hPa 0,0 l/m 1,8 km/h (1 Bft) S 180 5 min 16,0 C 35,4 C 1,8 km/h (1 Bft)
14.08.2021 16:25 29,1 C 20,4 C 27,7 C 35,4 C 35,4 C 6,3 C 44 % 50 % 1017,2 hPa 0,0 l/m 1,4 km/h (1 Bft) W-SW 247 5 min 15,6 C 35,4 C 1,8 km/h (1 Bft)
14.08.2021 16:30 29,1 C 20,4 C 27,5 C 35,5 C 35,5 C 6,4 C 45 % 49 % 1017,2 hPa 0,0 l/m 1,1 km/h (1 Bft) W 270 5 min 15,9 C 35,5 C 1,8 km/h (1 Bft)
14.08.2021 16:35 29,0 C 20,4 C 27,6 C 35,7 C 35,7 C 6,7 C 45 % 50 % 1017,1 hPa 0,0 l/m 1,3 km/h (1 Bft) W-SW 247 5 min 15,8 C 35,7 C 2,9 km/h (1 Bft)
14.08.2021 16:40 29,1 C 20,5 C 27,7 C 35,5 C 35,5 C 6,4 C 45 % 50 % 1017,1 hPa 0,0 l/m 1,8 km/h (1 Bft) S 180 5 min 15,9 C 35,5 C 2,1 km/h (1 Bft)
14.08.2021 16:45 29,1 C 20,5 C 27,7 C 35,0 C 35,0 C 5,9 C 46 % 50 % 1017,1 hPa 0,0 l/m 2,1 km/h (1 Bft) W 270 5 min 16,3 C 35,0 C 3,1 km/h (1 Bft)
14.08.2021 16:50 29,1 C 20,5 C 27,7 C 34,1 C 34,1 C 5,0 C 46 % 51 % 1017,1 hPa 0,0 l/m 1,9 km/h (1 Bft) W-SW 247 5 min 16,3 C 34,1 C 4,7 km/h (1 Bft)
14.08.2021 16:55 29,2 C 20,5 C 27,7 C 32,8 C 32,8 C 3,6 C 45 % 51 % 1016,9 hPa 0,0 l/m 2,3 km/h (1 Bft) SW 225 5 min 16,0 C 32,8 C 2,1 km/h (1 Bft)
14.08.2021 17:00 29,2 C 20,5 C 27,7 C 32,0 C 32,0 C 2,8 C 45 % 51 % 1016,9 hPa 0,0 l/m 2,3 km/h (1 Bft) SW 225 0 min 16,0 C 32,0 C 10,8 km/h (2 Bft)
14.08.2021 17:05 29,2 C 20,5 C 27,8 C 31,3 C 31,3 C 2,1 C 46 % 51 % 1016,9 hPa 0,0 l/m 1,8 km/h (1 Bft) S-SW 202 0 min 16,4 C 31,3 C 0,0 km/h (0 Bft)
14.08.2021 17:10 29,2 C 20,5 C 27,8 C 31,1 C 31,1 C 1,9 C 46 % 51 % 1016,9 hPa 0,0 l/m 1,6 km/h (1 Bft) S-SW 202 0 min 16,4 C 31,1 C 2,4 km/h (1 Bft)
14.08.2021 17:15 29,2 C 20,5 C 27,7 C 30,5 C 30,5 C 1,3 C 46 % 51 % 1016,7 hPa 0,0 l/m 1,6 km/h (1 Bft) S 180 0 min 16,4 C 30,5 C 2,1 km/h (1 Bft)
14.08.2021 17:20 29,3 C 20,6 C 27,7 C 30,2 C 30,2 C 0,9 C 46 % 52 % 1016,7 hPa 0,0 l/m 1,8 km/h (1 Bft) S-SW 202 0 min 16,5 C 30,2 C 1,6 km/h (1 Bft)
14.08.2021 17:25 29,4 C 20,6 C 27,7 C 30,0 C 30,0 C 0,6 C 46 % 52 % 1016,7 hPa 0,0 l/m 1,3 km/h (1 Bft) SW 225 0 min 16,5 C 30,0 C 2,7 km/h (1 Bft)
14.08.2021 17:30 29,5 C 20,6 C 27,5 C 29,7 C 29,7 C 0,2 C 46 % 52 % 1016,7 hPa 0,0 l/m 1,4 km/h (1 Bft) S 180 0 min 16,6 C 29,7 C 0,0 km/h (0 Bft)
14.08.2021 17:35 29,5 C 20,6 C 27,6 C 29,6 C 29,6 C 0,1 C 46 % 53 % 1016,5 hPa 0,0 l/m 1,4 km/h (1 Bft) SW 225 0 min 16,6 C 29,6 C 1,6 km/h (1 Bft)
14.08.2021 17:40 29,4 C 20,6 C 27,6 C 29,6 C 29,6 C 0,2 C 46 % 52 % 1016,5 hPa 0,0 l/m 1,3 km/h (1 Bft) SW 225 0 min 16,5 C 29,6 C 4,3 km/h (1 Bft)
14.08.2021 17:45 29,5 C 20,6 C 27,7 C 29,5 C 29,5 C 0,0 C 46 % 53 % 1016,5 hPa 0,0 l/m 1,3 km/h (1 Bft) SW 225 0 min 16,6 C 29,5 C 1,8 km/h (1 Bft)
14.08.2021 17:50 29,5 C 20,6 C 27,7 C 29,6 C 29,6 C 0,1 C 46 % 52 % 1016,5 hPa 0,0 l/m 1,1 km/h (1 Bft) SW 225 0 min 16,6 C 29,6 C 0,0 km/h (0 Bft)
14.08.2021 17:55 29,5 C 20,7 C 27,6 C 29,6 C 29,6 C 0,1 C 46 % 52 % 1016,6 hPa 0,0 l/m 1,0 km/h (0 Bft) S-SW 202 0 min 16,6 C 29,6 C 1,8 km/h (1 Bft)
14.08.2021 18:00 29,4 C 20,8 C 27,5 C 29,5 C 29,5 C 0,1 C 46 % 52 % 1016,6 hPa 0,0 l/m 0,6 km/h (0 Bft) W-SW 247 0 min 16,5 C 29,5 C 1,8 km/h (1 Bft)
14.08.2021 18:05 29,3 C 20,8 C 27,5 C 29,4 C 29,4 C 0,1 C 46 % 50 % 1016,6 hPa 0,0 l/m 1,3 km/h (1 Bft) S 180 0 min 16,5 C 29,4 C 0,0 km/h (0 Bft)
14.08.2021 18:10 29,2 C 20,7 C 27,5 C 29,3 C 29,3 C 0,1 C 46 % 52 % 1016,6 hPa 0,0 l/m 1,1 km/h (1 Bft) S 180 0 min 16,4 C 29,3 C 0,0 km/h (0 Bft)
14.08.2021 18:15 29,3 C 20,7 C 27,4 C 29,3 C 29,3 C 0,0 C 46 % 52 % 1016,1 hPa 0,0 l/m 0,5 km/h (0 Bft) SW 225 0 min 16,5 C 29,3 C 2,3 km/h (1 Bft)
14.08.2021 18:20 29,2 C 20,8 C 27,4 C 29,2 C 29,2 C 0,0 C 46 % 53 % 1016,1 hPa 0,0 l/m 1,1 km/h (1 Bft) SW 225 0 min 16,4 C 29,2 C 2,7 km/h (1 Bft)
14.08.2021 18:25 29,1 C 20,8 C 27,3 C 29,1 C 29,1 C 0,0 C 47 % 53 % 1016,1 hPa 0,0 l/m 1,0 km/h (0 Bft) SW 225 0 min 16,6 C 29,1 C 1,6 km/h (1 Bft)
14.08.2021 18:30 29,1 C 20,8 C 27,3 C 29,2 C 29,2 C 0,1 C 47 % 53 % 1016,1 hPa 0,0 l/m 1,0 km/h (0 Bft) S-SW 202 0 min 16,6 C 29,2 C 1,8 km/h (1 Bft)
14.08.2021 18:35 29,2 C 20,9 C 27,2 C 29,1 C 29,0 C 0,0 C 47 % 54 % 1016,1 hPa 0,0 l/m 0,8 km/h (0 Bft) N-NO 22 0 min 16,7 C 29,0 C 0,0 km/h (0 Bft)
14.08.2021 18:40 29,3 C 20,9 C 27,2 C 29,2 C 29,0 C 0,0 C 47 % 53 % 1016,1 hPa 0,0 l/m 0,6 km/h (0 Bft) S 180 0 min 16,8 C 29,0 C 0,0 km/h (0 Bft)
14.08.2021 18:45 29,2 C 20,9 C 27,2 C 29,2 C 29,1 C 0,0 C 47 % 54 % 1016,1 hPa 0,0 l/m 0,5 km/h (0 Bft) W-SW 247 0 min 16,7 C 29,1 C 0,0 km/h (0 Bft)
14.08.2021 18:50 29,3 C 20,9 C 27,1 C 29,2 C 29,1 C 0,0 C 47 % 54 % 1016,1 hPa 0,0 l/m 0,5 km/h (0 Bft) W-SW 247 0 min 16,8 C 29,1 C 0,0 km/h (0 Bft)
14.08.2021 18:55 29,2 C 20,9 C 27,1 C 29,1 C 28,8 C 0,0 C 47 % 54 % 1016,0 hPa 0,0 l/m 0,3 km/h (0 Bft) SW 225 0 min 16,7 C 28,8 C 0,0 km/h (0 Bft)
14.08.2021 19:00 29,2 C 20,9 C 27,1 C 29,0 C 28,6 C 0,0 C 47 % 54 % 1016,0 hPa 0,0 l/m 0,3 km/h (0 Bft) S-SW 202 0 min 16,7 C 28,6 C 0,0 km/h (0 Bft)
14.08.2021 19:05 29,1 C 20,9 C 26,9 C 28,9 C 28,4 C 0,0 C 47 % 54 % 1016,0 hPa 0,0 l/m 0,2 km/h (0 Bft) SW 225 0 min 16,6 C 28,4 C 0,0 km/h (0 Bft)
14.08.2021 19:10 29,1 C 20,9 C 26,8 C 28,8 C 28,3 C 0,0 C 48 % 55 % 1016,0 hPa 0,0 l/m 0,2 km/h (0 Bft) SW 225 0 min 16,9 C 28,3 C 0,0 km/h (0 Bft)
14.08.2021 19:15 29,0 C 21,0 C 26,7 C 28,7 C 28,2 C 0,0 C 48 % 55 % 1016,5 hPa 0,0 l/m 0,0 km/h (0 Bft) SW 225 0 min 16,9 C 28,2 C 0,0 km/h (0 Bft)
14.08.2021 19:20 28,9 C 21,0 C 26,6 C 28,6 C 28,0 C 0,0 C 48 % 56 % 1016,5 hPa 0,0 l/m 0,2 km/h (0 Bft) W-SW 247 0 min 16,8 C 28,0 C 0,0 km/h (0 Bft)
14.08.2021 19:25 28,8 C 21,0 C 26,5 C 28,5 C 27,9 C 0,0 C 48 % 57 % 1016,5 hPa 0,0 l/m 0,2 km/h (0 Bft) W 270 0 min 16,7 C 27,9 C 0,0 km/h (0 Bft)
14.08.2021 19:30 28,7 C 21,0 C 26,4 C 28,5 C 28,0 C 0,0 C 49 % 57 % 1016,5 hPa 0,0 l/m 0,2 km/h (0 Bft) W-SW 247 0 min 16,9 C 28,0 C 0,0 km/h (0 Bft)
14.08.2021 19:35 28,4 C 21,0 C 26,2 C 28,7 C 28,7 C 0,3 C 50 % 59 % 1015,9 hPa 0,0 l/m 0,0 km/h (0 Bft) W-SW 247 0 min 17,0 C 28,7 C 0,0 km/h (0 Bft)
14.08.2021 19:40 28,3 C 21,0 C 26,0 C 29,1 C 29,1 C 0,8 C 50 % 57 % 1015,9 hPa 0,0 l/m 0,2 km/h (0 Bft) NW 315 0 min 16,9 C 29,1 C 0,0 km/h (0 Bft)
14.08.2021 19:45 28,0 C 21,0 C 25,8 C 28,7 C 28,7 C 0,7 C 51 % 59 % 1015,9 hPa 0,0 l/m 0,2 km/h (0 Bft) NW 315 0 min 16,9 C 28,7 C 0,0 km/h (0 Bft)
14.08.2021 19:50 27,9 C 21,0 C 25,5 C 28,3 C 28,3 C 0,4 C 51 % 61 % 1015,9 hPa 0,0 l/m 0,0 km/h (0 Bft) NW 315 0 min 16,8 C 28,3 C 0,0 km/h (0 Bft)
14.08.2021 19:55 27,6 C 21,0 C 25,2 C 27,5 C 27,4 C 0,0 C 52 % 62 % 1016,0 hPa 0,0 l/m 0,0 km/h (0 Bft) NW 315 0 min 16,8 C 27,4 C 0,0 km/h (0 Bft)
14.08.2021 20:00 27,4 C 21,0 C 25,0 C 27,2 C 26,8 C 0,0 C 53 % 63 % 1016,0 hPa 0,0 l/m 0,0 km/h (0 Bft) NW 315 0 min 17,0 C 26,8 C 0,0 km/h (0 Bft)
14.08.2021 20:05 27,0 C 21,1 C 24,5 C 26,6 C 25,9 C 0,0 C 55 % 64 % 1016,0 hPa 0,0 l/m 0,0 km/h (0 Bft) NW 315 0 min 17,2 C 25,9 C 0,0 km/h (0 Bft)
14.08.2021 20:10 26,9 C 21,1 C 24,2 C 26,4 C 25,3 C 0,0 C 55 % 65 % 1016,0 hPa 0,0 l/m 0,0 km/h (0 Bft) NW 315 0 min 17,1 C 25,3 C 0,0 km/h (0 Bft)
14.08.2021 20:15 26,5 C 21,1 C 24,0 C 25,9 C 24,7 C 0,0 C 56 % 66 % 1015,8 hPa 0,0 l/m 0,0 km/h (0 Bft) NW 315 0 min 17,0 C 24,7 C 0,0 km/h (0 Bft)
14.08.2021 20:20 26,2 C 21,2 C 23,7 C 25,6 C 24,3 C 0,0 C 57 % 67 % 1015,8 hPa 0,0 l/m 0,0 km/h (0 Bft) NW 315 0 min 17,0 C 24,3 C 0,0 km/h (0 Bft)
14.08.2021 20:25 25,7 C 21,2 C 23,3 C 25,0 C 23,7 C 0,0 C 59 % 68 % 1015,8 hPa 0,0 l/m 0,0 km/h (0 Bft) NW 315 0 min 17,1 C 23,7 C 0,0 km/h (0 Bft)
14.08.2021 20:30 25,4 C 21,2 C 23,1 C 24,7 C 23,4 C 0,0 C 60 % 69 % 1015,8 hPa 0,0 l/m 0,0 km/h (0 Bft) NW 315 0 min 17,1 C 23,4 C 0,0 km/h (0 Bft)
14.08.2021 20:35 25,1 C 21,2 C 22,9 C 24,4 C 22,9 C 0,0 C 61 % 69 % 1015,9 hPa 0,0 l/m 0,0 km/h (0 Bft) NW 315 0 min 17,0 C 22,9 C 0,0 km/h (0 Bft)
14.08.2021 20:40 24,8 C 21,2 C 22,7 C 24,1 C 22,7 C 0,0 C 61 % 70 % 1015,9 hPa 0,0 l/m 0,0 km/h (0 Bft) NW 315 0 min 16,8 C 22,7 C 0,0 km/h (0 Bft)
14.08.2021 20:45 24,4 C 21,2 C 22,4 C 23,7 C 22,3 C 0,0 C 63 % 71 % 1015,9 hPa 0,0 l/m 0,0 km/h (0 Bft) NW 315 0 min 16,9 C 22,3 C 0,0 km/h (0 Bft)
14.08.2021 20:50 24,1 C 21,2 C 22,3 C 23,5 C 22,2 C 0,0 C 64 % 71 % 1015,9 hPa 0,0 l/m 0,0 km/h (0 Bft) NW 315 0 min 16,9 C 22,2 C 0,0 km/h (0 Bft)
14.08.2021 20:55 23,7 C 21,2 C 22,0 C 23,1 C 21,8 C 0,0 C 65 % 73 % 1015,9 hPa 0,0 l/m 0,0 km/h (0 Bft) NW 315 0 min 16,7 C 21,8 C 0,0 km/h (0 Bft)
14.08.2021 21:00 23,5 C 21,2 C 21,8 C 22,9 C 21,6 C 0,0 C 66 % 73 % 1015,9 hPa 0,0 l/m 0,0 km/h (0 Bft) NW 315 0 min 16,8 C 21,6 C 0,0 km/h (0 Bft)
14.08.2021 21:05 23,2 C 21,3 C 21,5 C 22,6 C 21,4 C 0,0 C 67 % 74 % 1015,9 hPa 0,0 l/m 0,0 km/h (0 Bft) NW 315 0 min 16,7 C 21,4 C 0,0 km/h (0 Bft)
14.08.2021 21:10 22,9 C 21,3 C 21,3 C 22,3 C 21,2 C 0,0 C 67 % 74 % 1015,9 hPa 0,0 l/m 0,0 km/h (0 Bft) NW 315 0 min 16,4 C 21,2 C 0,0 km/h (0 Bft)
14.08.2021 21:15 22,7 C 21,3 C 21,2 C 22,1 C 20,9 C 0,0 C 68 % 75 % 1016,2 hPa 0,0 l/m 0,0 km/h (0 Bft) NW 315 0 min 16,5 C 20,9 C 0,0 km/h (0 Bft)
14.08.2021 21:20 22,5 C 21,3 C 21,1 C 21,9 C 20,8 C 0,0 C 69 % 75 % 1016,2 hPa 0,0 l/m 0,0 km/h (0 Bft) NW 315 0 min 16,5 C 20,8 C 0,0 km/h (0 Bft)
14.08.2021 21:25 22,3 C 21,3 C 20,8 C 21,6 C 20,3 C 0,0 C 69 % 76 % 1016,2 hPa 0,0 l/m 0,0 km/h (0 Bft) NW 315 0 min 16,3 C 20,3 C 0,0 km/h (0 Bft)
14.08.2021 21:30 22,1 C 21,3 C 20,7 C 21,4 C 20,1 C 0,0 C 69 % 77 % 1016,2 hPa 0,0 l/m 0,0 km/h (0 Bft) NW 315 0 min 16,1 C 20,1 C 0,0 km/h (0 Bft)
14.08.2021 21:35 21,9 C 21,3 C 20,5 C 21,2 C 19,9 C 0,0 C 70 % 77 % 1016,1 hPa 0,0 l/m 0,0 km/h (0 Bft) NW 315 0 min 16,2 C 19,9 C 0,0 km/h (0 Bft)
14.08.2021 21:40 21,7 C 21,3 C 20,4 C 21,0 C 19,7 C 0,0 C 71 % 78 % 1016,1 hPa 0,0 l/m 0,0 km/h (0 Bft) NW 315 0 min 16,2 C 19,7 C 0,0 km/h (0 Bft)
14.08.2021 21:45 21,5 C 21,3 C 20,3 C 20,8 C 19,4 C 0,0 C 71 % 78 % 1016,1 hPa 0,0 l/m 0,0 km/h (0 Bft) NW 315 0 min 16,0 C 19,4 C 0,0 km/h (0 Bft)
14.08.2021 21:50 21,3 C 21,3 C 20,2 C 20,6 C 19,2 C 0,0 C 72 % 79 % 1016,1 hPa 0,0 l/m 0,0 km/h (0 Bft) NW 315 0 min 16,0 C 19,2 C 0,0 km/h (0 Bft)
14.08.2021 21:55 21,1 C 21,3 C 20,1 C 20,4 C 19,0 C 0,0 C 72 % 79 % 1016,1 hPa 0,0 l/m 0,0 km/h (0 Bft) NW 315 0 min 15,8 C 19,0 C 0,0 km/h (0 Bft)
14.08.2021 22:00 21,1 C 21,3 C 20,0 C 20,4 C 18,9 C 0,0 C 72 % 79 % 1016,1 hPa 0,0 l/m 0,0 km/h (0 Bft) NW 315 0 min 15,8 C 18,9 C 0,0 km/h (0 Bft)
14.08.2021 22:05 20,9 C 21,3 C 19,9 C 20,2 C 18,8 C 0,0 C 73 % 80 % 1016,1 hPa 0,0 l/m 0,0 km/h (0 Bft) NW 315 0 min 15,9 C 18,8 C 0,0 km/h (0 Bft)
14.08.2021 22:10 20,7 C 21,3 C 19,7 C 20,0 C 18,7 C 0,0 C 74 % 81 % 1016,1 hPa 0,0 l/m 0,0 km/h (0 Bft) NW 315 0 min 15,9 C 18,7 C 0,0 km/h (0 Bft)
14.08.2021 22:15 20,5 C 21,3 C 19,6 C 19,8 C 18,5 C 0,0 C 74 % 81 % 1016,4 hPa 0,0 l/m 0,0 km/h (0 Bft) NW 315 0 min 15,7 C 18,5 C 0,0 km/h (0 Bft)
14.08.2021 22:20 20,4 C 21,3 C 19,5 C 19,7 C 18,4 C 0,0 C 75 % 81 % 1016,4 hPa 0,0 l/m 0,0 km/h (0 Bft) NW 315 0 min 15,8 C 18,4 C 0,0 km/h (0 Bft)
14.08.2021 22:25 20,3 C 21,5 C 19,4 C 19,6 C 18,3 C 0,0 C 76 % 81 % 1016,4 hPa 0,0 l/m 0,0 km/h (0 Bft) NW 315 0 min 15,9 C 18,3 C 0,0 km/h (0 Bft)
14.08.2021 22:30 20,1 C 21,5 C 19,3 C 19,5 C 18,2 C 0,0 C 76 % 82 % 1016,4 hPa 0,0 l/m 0,0 km/h (0 Bft) NW 315 0 min 15,7 C 18,2 C 0,0 km/h (0 Bft)
14.08.2021 22:35 20,0 C 21,4 C 19,2 C 19,3 C 18,0 C 0,0 C 76 % 82 % 1016,5 hPa 0,0 l/m 0,0 km/h (0 Bft) NW 315 0 min 15,6 C 18,0 C 0,0 km/h (0 Bft)
14.08.2021 22:40 19,8 C 21,4 C 19,1 C 19,1 C 17,8 C 0,0 C 77 % 83 % 1016,5 hPa 0,0 l/m 0,0 km/h (0 Bft) NW 315 0 min 15,6 C 17,8 C 0,0 km/h (0 Bft)
14.08.2021 22:45 19,7 C 21,4 C 18,9 C 19,0 C 17,7 C 0,0 C 77 % 83 % 1016,5 hPa 0,0 l/m 0,0 km/h (0 Bft) NW 315 0 min 15,5 C 17,7 C 0,0 km/h (0 Bft)
14.08.2021 22:50 19,5 C 21,4 C 18,9 C 18,9 C 17,6 C 0,0 C 77 % 83 % 1016,5 hPa 0,0 l/m 0,0 km/h (0 Bft) NW 315 0 min 15,4 C 17,6 C 0,0 km/h (0 Bft)
14.08.2021 22:55 19,5 C 21,4 C 18,7 C 18,8 C 17,4 C 0,0 C 78 % 84 % 1016,2 hPa 0,0 l/m 0,0 km/h (0 Bft) NW 315 0 min 15,6 C 17,4 C 0,0 km/h (0 Bft)
14.08.2021 23:00 19,3 C 21,4 C 18,7 C 18,6 C 17,3 C 0,0 C 78 % 84 % 1016,2 hPa 0,0 l/m 0,0 km/h (0 Bft) NW 315 0 min 15,4 C 17,3 C 0,0 km/h (0 Bft)
14.08.2021 23:05 19,2 C 21,5 C 18,5 C 18,5 C 17,2 C 0,0 C 78 % 84 % 1016,2 hPa 0,0 l/m 0,0 km/h (0 Bft) NW 315 0 min 15,3 C 17,2 C 0,0 km/h (0 Bft)
14.08.2021 23:10 19,0 C 21,5 C 18,5 C 18,4 C 17,2 C 0,0 C 78 % 84 % 1016,2 hPa 0,0 l/m 0,0 km/h (0 Bft) NW 315 0 min 15,1 C 17,2 C 0,0 km/h (0 Bft)
14.08.2021 23:15 18,9 C 21,5 C 18,4 C 18,3 C 17,0 C 0,0 C 79 % 85 % 1016,1 hPa 0,0 l/m 0,0 km/h (0 Bft) NW 315 0 min 15,2 C 17,0 C 0,0 km/h (0 Bft)
14.08.2021 23:20 18,9 C 21,4 C 18,3 C 18,3 C 17,0 C 0,0 C 79 % 85 % 1016,1 hPa 0,0 l/m 0,0 km/h (0 Bft) NW 315 0 min 15,2 C 17,0 C 0,0 km/h (0 Bft)
14.08.2021 23:25 18,6 C 21,4 C 18,1 C 18,0 C 16,8 C 0,0 C 80 % 85 % 1016,1 hPa 0,0 l/m 0,0 km/h (0 Bft) NW 315 0 min 15,1 C 16,8 C 0,0 km/h (0 Bft)
14.08.2021 23:30 18,6 C 21,4 C 18,1 C 17,9 C 16,6 C 0,0 C 80 % 85 % 1016,1 hPa 0,0 l/m 0,0 km/h (0 Bft) NW 315 0 min 15,1 C 16,6 C 0,0 km/h (0 Bft)
14.08.2021 23:35 18,5 C 21,4 C 17,9 C 17,8 C 16,4 C 0,0 C 80 % 85 % 1016,1 hPa 0,0 l/m 0,0 km/h (0 Bft) NW 315 0 min 15,0 C 16,4 C 0,0 km/h (0 Bft)
14.08.2021 23:40 18,3 C 21,4 C 17,8 C 17,7 C 16,4 C 0,0 C 80 % 85 % 1016,1 hPa 0,0 l/m 0,0 km/h (0 Bft) NW 315 0 min 14,8 C 16,4 C 0,0 km/h (0 Bft)
14.08.2021 23:45 18,2 C 21,4 C 17,7 C 17,6 C 16,3 C 0,0 C 80 % 86 % 1016,1 hPa 0,0 l/m 0,0 km/h (0 Bft) NW 315 0 min 14,7 C 16,3 C 0,0 km/h (0 Bft)
14.08.2021 23:50 18,1 C 21,4 C 17,7 C 17,5 C 16,2 C 0,0 C 81 % 86 % 1016,1 hPa 0,0 l/m 0,0 km/h (0 Bft) NW 315 0 min 14,8 C 16,2 C 0,0 km/h (0 Bft)
14.08.2021 23:55 18,0 C 21,4 C 17,5 C 17,4 C 16,1 C 0,0 C 81 % 86 % 1016,1 hPa 0,0 l/m 0,0 km/h (0 Bft) NW 315 0 min 14,7 C 16,1 C 0,0 km/h (0 Bft)
_ Min-Zeit 06:30 09:40 06:15 06:15 06:15 00:00 14:05 16:00 20:15 - 00:00 - - - 06:30 06:15 00:00
Minimum _ 16,7 C 19,8 C 16,3 C 16,3 C 15,3 C 0,0 C 43 % 48 % 1015,8 hPa - 0,0 km/h (0 Bft) - - - 14,3 C 15,3 C 0,0 km/h (0 Bft)
_ Max-Zeit 13:55 22:25 17:05 16:35 16:35 08:15 06:45 06:30 10:55 00:00 14:10 - - 07:20 08:45 16:35 17:00
Maximum _ 29,5 C 21,5 C 27,8 C 35,7 C 35,7 C 10,4 C 87 % 91 % 1019,9 hPa 0,0 l/m 2,7 km/h
S (1 Bft)
- - 5 min 19,2 C 35,7 C 10,8 km/h
SW (2 Bft)
Durchschnitt _ 23,2 C 20,6 C 21,7 C 25,0 C 24,6 C 2,0 C 68 % 74 % 1018,2 hPa #0,0 l/m 0,5 km/h (0 Bft) SW - #6:20 h 16,3 C 24,6 C 0,9 km/h (0 Bft)
2021 www.wetterstation-wechselburg.de